Previsão horária em Barletta

Hoje, 23 Julho, Sexta-feira

Tempo Temperatura Precipitação Vento Pressão Humidade
00:00 +26°C° 0 mm 2 m/s 759 mmHg 36%
01:00 +25°C° 0 mm 2 m/s 759 mmHg 36%
02:00 +25°C° 0 mm 2 m/s 759 mmHg 35%
03:00 +25°C° 0 mm 2 m/s 759 mmHg 34%
04:00 +25°C° 0 mm 1 m/s 759 mmHg 33%
05:00 +26°C° 0 mm 2 m/s 759 mmHg 31%
06:00 +28°C° 0 mm 2 m/s 759 mmHg 29%
07:00 +29°C° 0 mm 1 m/s 759 mmHg 27%
08:00 +30°C° 0 mm 2 m/s 759 mmHg 25%
09:00 +32°C° 0 mm 2 m/s 759 mmHg 23%
10:00 +35°C° 0 mm 2 m/s 759 mmHg 22%
11:00 +35°C° 0 mm 3 m/s 759 mmHg 22%
12:00 +36°C° 0 mm 4 m/s 759 mmHg 23%
13:00 +36°C° 0 mm 4 m/s 758 mmHg 24%
14:00 +36°C° 0 mm 4 m/s 758 mmHg 27%
15:00 +35°C° 0 mm 4 m/s 758 mmHg 30%
16:00 +34°C° 0 mm 4 m/s 758 mmHg 33%
17:00 +33°C° 0 mm 3 m/s 758 mmHg 35%
18:00 +31°C° 0 mm 2 m/s 758 mmHg 38%
19:00 +30°C° 0 mm 1 m/s 758 mmHg 40%
20:00 +30°C° 0 mm 1 m/s 758 mmHg 41%
21:00 +29°C° 0 mm 1 m/s 759 mmHg 42%
22:00 +27°C° 0 mm 0 m/s 759 mmHg 43%
23:00 +26°C° 0 mm 0 m/s 759 mmHg 44%

Amanhã, 24 Julho, Sábado

Tempo Temperatura Precipitação Vento Pressão Humidade
00:00 +26°C° 0 mm 0 m/s 758 mmHg 45%
01:00 +28°C° 0 mm 1 m/s 758 mmHg 46%
02:00 +25°C° 0 mm 0 m/s 758 mmHg 48%
03:00 +25°C° 0 mm 0 m/s 758 mmHg 49%
04:00 +25°C° 0 mm 0 m/s 758 mmHg 51%
05:00 +28°C° 0 mm 1 m/s 758 mmHg 50%
06:00 +28°C° 0 mm 1 m/s 758 mmHg 48%
07:00 +29°C° 0 mm 1 m/s 758 mmHg 47%
08:00 +31°C° 0 mm 1 m/s 758 mmHg 43%
09:00 +34°C° 0 mm 2 m/s 758 mmHg 38%
10:00 +35°C° 0 mm 2 m/s 758 mmHg 34%
11:00 +36°C° 0 mm 2 m/s 758 mmHg 32%
12:00 +37°C° 0 mm 3 m/s 758 mmHg 31%
13:00 +37°C° 0 mm 4 m/s 758 mmHg 29%
14:00 +37°C° 0 mm 4 m/s 758 mmHg 30%
15:00 +37°C° 0 mm 4 m/s 758 mmHg 31%
16:00 +36°C° 0 mm 4 m/s 758 mmHg 32%
17:00 +35°C° 0 mm 4 m/s 758 mmHg 34%
18:00 +34°C° 0 mm 3 m/s 758 mmHg 37%
19:00 +32°C° 0 mm 2 m/s 758 mmHg 40%
20:00 +31°C° 0 mm 2 m/s 758 mmHg 41%
21:00 +31°C° 0 mm 2 m/s 758 mmHg 42%
22:00 +30°C° 0 mm 2 m/s 758 mmHg 42%
23:00 +30°C° 0 mm 2 m/s 758 mmHg 43%

Depois de amanhã, 25 Julho, Domingo

Tempo Temperatura Precipitação Vento Pressão Humidade
00:00 +30°C° 0 mm 2 m/s 757 mmHg 43%
01:00 +29°C° 0 mm 2 m/s 757 mmHg 43%
02:00 +29°C° 0 mm 2 m/s 757 mmHg 44%
03:00 +29°C° 0 mm 2 m/s 757 mmHg 46%
04:00 +28°C° 0 mm 2 m/s 757 mmHg 47%
05:00 +30°C° 0 mm 2 m/s 757 mmHg 44%
06:00 +31°C° 0 mm 1 m/s 757 mmHg 41%
07:00 +32°C° 0 mm 1 m/s 757 mmHg 39%
08:00 +35°C° 0 mm 2 m/s 757 mmHg 35%
09:00 +37°C° 0 mm 2 m/s 758 mmHg 31%
10:00 +39°C° 0 mm 3 m/s 758 mmHg 27%
11:00 +40°C° 0 mm 3 m/s 757 mmHg 26%
12:00 +41°C° 0 mm 4 m/s 757 mmHg 24%
13:00 +42°C° 0 mm 5 m/s 757 mmHg 23%
14:00 +42°C° 0 mm 4 m/s 757 mmHg 22%
15:00 +42°C° 0 mm 4 m/s 757 mmHg 22%
16:00 +42°C° 0 mm 4 m/s 756 mmHg 22%
17:00 +40°C° 0 mm 4 m/s 756 mmHg 27%
18:00 +37°C° 0 mm 4 m/s 756 mmHg 31%
19:00 +36°C° 0 mm 4 m/s 756 mmHg 36%
20:00 +35°C° 0 mm 4 m/s 757 mmHg 37%
21:00 +34°C° 0 mm 4 m/s 757 mmHg 39%
22:00 +33°C° 0 mm 3 m/s 757 mmHg 40%
23:00 +33°C° 0 mm 3 m/s 757 mmHg 39%

26 Julho, Segunda-feira

Tempo Temperatura Precipitação Vento Pressão Humidade
00:00 +31°C° 0 mm 3 m/s 757 mmHg 39%
01:00 +31°C° 0 mm 3 m/s 757 mmHg 38%
02:00 +30°C° 0 mm 3 m/s 757 mmHg 37%
03:00 +30°C° 0 mm 3 m/s 757 mmHg 36%
04:00 +30°C° 0 mm 2 m/s 757 mmHg 34%
05:00 +31°C° 0 mm 2 m/s 757 mmHg 31%
06:00 +34°C° 0 mm 2 m/s 757 mmHg 28%
07:00 +35°C° 0 mm 2 m/s 758 mmHg 25%
08:00 +37°C° 0 mm 2 m/s 758 mmHg 22%
09:00 +39°C° 0 mm 2 m/s 758 mmHg 19%
10:00 +41°C° 0 mm 2 m/s 758 mmHg 16%
11:00 +43°C° 0 mm 3 m/s 758 mmHg 16%
12:00 +44°C° 0 mm 4 m/s 758 mmHg 15%
13:00 +45°C° 0 mm 4 m/s 757 mmHg 15%
14:00 +44°C° 0 mm 4 m/s 757 mmHg 17%
15:00 +44°C° 0 mm 4 m/s 757 mmHg 18%
16:00 +43°C° 0 mm 4 m/s 757 mmHg 20%
17:00 +42°C° 0 mm 4 m/s 757 mmHg 22%
18:00 +40°C° 0 mm 4 m/s 757 mmHg 25%
19:00 +38°C° 0 mm 4 m/s 757 mmHg 27%
20:00 +36°C° 0 mm 3 m/s 758 mmHg 31%
21:00 +35°C° 0 mm 3 m/s 758 mmHg 34%
22:00 +34°C° 0 mm 3 m/s 758 mmHg 37%
23:00 +33°C° 0 mm 3 m/s 758 mmHg 36%

27 Julho, Terça-feira

Tempo Temperatura Precipitação Vento Pressão Humidade
00:00 +32°C° 0 mm 2 m/s 758 mmHg 35%
01:00 +32°C° 0 mm 2 m/s 758 mmHg 34%
02:00 +32°C° 0 mm 2 m/s 758 mmHg 34%
03:00 +31°C° 0 mm 2 m/s 758 mmHg 33%
04:00 +31°C° 0 mm 1 m/s 758 mmHg 33%
05:00 +32°C° 0 mm 1 m/s 759 mmHg 30%
06:00 +33°C° 0 mm 1 m/s 759 mmHg 28%
07:00 +34°C° 0 mm 1 m/s 760 mmHg 26%
08:00 +36°C° 0 mm 1 m/s 760 mmHg 23%
09:00 +39°C° 0 mm 1 m/s 760 mmHg 20%
10:00 +41°C° 0 mm 2 m/s 760 mmHg 17%
11:00 +43°C° 0 mm 3 m/s 759 mmHg 16%
12:00 +44°C° 0 mm 4 m/s 759 mmHg 16%
13:00 +45°C° 0 mm 5 m/s 759 mmHg 15%
14:00 +43°C° 0 mm 5 m/s 759 mmHg 17%
15:00 +42°C° 0 mm 5 m/s 759 mmHg 20%
16:00 +41°C° 0 mm 5 m/s 759 mmHg 22%
17:00 +40°C° 0 mm 5 m/s 759 mmHg 25%
18:00 +38°C° 0 mm 4 m/s 759 mmHg 27%
19:00 +36°C° 0 mm 3 m/s 759 mmHg 30%
20:00 +35°C° 0 mm 3 m/s 759 mmHg 32%
21:00 +34°C° 0 mm 2 m/s 759 mmHg 34%
22:00 +32°C° 0 mm 2 m/s 759 mmHg 36%
23:00 +32°C° 0 mm 2 m/s 759 mmHg 34%

28 Julho, Quarta-feira

Tempo Temperatura Precipitação Vento Pressão Humidade
00:00 +32°C° 0 mm 2 m/s 759 mmHg 33%
01:00 +31°C° 0 mm 2 m/s 759 mmHg 32%
02:00 +31°C° 0 mm 2 m/s 759 mmHg 30%
03:00 +31°C° 0 mm 2 m/s 758 mmHg 29%
04:00 +31°C° 0 mm 2 m/s 758 mmHg 27%
05:00 +32°C° 0 mm 2 m/s 758 mmHg 25%
06:00 +35°C° 0 mm 2 m/s 759 mmHg 22%
07:00 +36°C° 0 mm 2 m/s 759 mmHg 20%
08:00 +38°C° 0 mm 2 m/s 759 mmHg 18%
09:00 +40°C° 0 mm 1 m/s 759 mmHg 15%
10:00 +42°C° 0 mm 1 m/s 759 mmHg 13%
11:00 +43°C° 0 mm 2 m/s 759 mmHg 13%
12:00 +45°C° 0 mm 3 m/s 759 mmHg 12%
13:00 +46°C° 0 mm 5 m/s 758 mmHg 12%
14:00 +45°C° 0 mm 4 m/s 758 mmHg 13%
15:00 +45°C° 0 mm 4 m/s 758 mmHg 13%
16:00 +44°C° 0 mm 4 m/s 758 mmHg 14%
17:00 +42°C° 0 mm 3 m/s 758 mmHg 18%
18:00 +40°C° 0 mm 3 m/s 758 mmHg 22%
19:00 +38°C° 0 mm 2 m/s 758 mmHg 25%
20:00 +37°C° 0 mm 2 m/s 759 mmHg 26%
21:00 +36°C° 0 mm 2 m/s 759 mmHg 27%
22:00 +34°C° 0 mm 1 m/s 759 mmHg 28%
23:00 +34°C° 0 mm 2 m/s 759 mmHg 27%
Mostrar mais